EUTELSAT 3B

Last updated on Sun Jun 21 2026 00:03:06 GMT+0000 (Coordinated Universal Time)

1 39773U 14030A 26171.39259049 .00000015 00000+0 00000+0 0 9999 2 39773 0.0693 24.2659 0004071 62.9003 325.8468 1.00271871 44099
UTC large
Height (km)
Speed (km/s)
/
Latitude / Longitude
Inclination (degrees)
Orbital Period (minutes)
Azimuth
Elevation
Range (km)
Doppler Factor

Next 0 passes for location: London (51.5072 / 0.1276)

No passes found over London.
EUTELSAT 3B